Theta_e
333 332 332 331 331 331 331 330 329 330 329 328 329 329 329 328 328 328 327 326 325 322 321 323 322 321 320 319 318 316 312 305 299 297 297 298 298 298 298 298 299 299 298 298 297 297 308 320 322 322 322 322 321 320 319 320 319 319 320 320 319 318 317 316 315 315 315 315 315 315 315 316 318 317 317 318 318 317 317 318 319 319 320 321 322
333 333 332 331 331 332 331 330 329 330 329 328 328 328 328 329 328 328 327 327 325 322 321 323 322 320 319 318 317 316 315 312 307 301 298 298 298 297 298 298 297 298 298 298 298 296 299 310 318 322 323 323 323 321 320 319 319 319 319 320 320 319 318 317 316 315 315 315 314 314 315 316 317 316 316 317 316 316 316 316 317 318 319 319 320
332 333 333 333 333 333 331 330 329 330 329 328 328 328 328 328 328 328 327 326 325 322 322 322 321 320 319 318 317 315 314 314 312 309 306 304 302 299 298 298 297 297 298 298 298 298 297 299 305 313 319 321 322 322 322 322 321 319 319 320 320 319 318 318 316 316 315 315 314 313 313 315 316 316 316 316 315 315 315 315 315 316 317 317 318
330 331 332 333 332 330 329 329 329 329 329 328 328 327 327 327 327 326 325 324 324 323 322 321 321 321 319 318 317 316 314 313 312 311 309 308 306 303 300 298 298 297 297 297 297 298 298 297 297 301 310 316 318 320 321 322 322 322 322 321 320 319 319 318 317 317 315 315 315 313 313 314 315 316 315 315 315 314 314 314 314 314 315 316 317
330 330 330 330 330 328 327 328 328 328 328 327 327 326 326 325 325 325 324 322 321 322 322 321 320 321 320 318 317 316 315 314 314 313 311 309 308 306 303 300 298 297 297 297 297 297 297 298 297 297 300 306 311 315 318 320 321 322 323 323 321 320 321 320 319 318 316 315 315 313 313 314 315 315 314 314 314 314 313 313 313 313 314 315 316
329 329 329 328 328 327 327 327 327 326 327 326 326 325 325 324 324 323 323 321 320 321 322 321 321 321 320 319 317 316 316 315 315 314 314 313 311 309 308 305 303 300 298 297 296 296 296 297 297 297 297 299 302 307 312 316 318 319 321 322 322 322 322 321 320 319 319 317 315 315 314 314 315 315 314 314 314 313 313 313 313 313 313 314 315
327 327 327 327 326 325 325 325 325 325 325 325 325 325 324 323 322 321 320 320 320 320 320 320 320 320 319 318 317 317 316 316 315 314 314 313 312 311 310 309 306 303 300 298 297 296 296 296 296 296 297 297 298 299 302 305 310 314 317 319 319 320 321 321 321 321 321 318 316 315 315 314 314 314 314 314 313 313 313 313 312 312 312 313 313
324 324 325 325 324 323 323 323 323 323 323 323 323 323 322 321 321 320 320 320 319 319 319 319 319 319 319 318 317 317 316 316 315 314 313 312 310 309 307 306 304 303 301 299 298 297 297 296 296 296 296 296 297 297 297 298 301 304 308 311 314 317 318 320 320 320 320 319 316 315 315 314 313 313 314 313 313 313 312 312 312 312 312 312 312
321 322 322 322 322 321 321 321 320 320 320 320 320 320 319 318 318 318 319 319 318 317 317 317 318 318 318 317 317 317 317 316 315 314 312 309 307 306 304 303 302 300 299 298 298 297 297 297 296 296 296 296 296 296 296 297 297 298 299 301 305 309 313 315 317 318 318 318 316 315 315 314 313 312 313 313 312 312 312 311 312 312 312 311 311
318 319 319 318 318 318 317 317 317 317 318 317 317 317 316 316 316 316 316 316 316 315 315 315 315 316 316 316 316 316 316 315 314 312 309 306 303 303 303 301 299 298 298 298 297 297 297 297 297 297 296 296 296 296 296 296 296 296 297 297 298 300 304 307 310 314 317 317 316 315 315 314 313 313 312 312 311 311 311 311 311 312 311 311 310
314 315 315 314 314 314 314 314 314 314 314 314 314 314 314 314 314 314 313 313 312 311 311 312 312 313 313 313 314 314 314 313 311 308 305 303 302 304 304 300 299 300 300 298 298 298 299 299 299 298 298 297 297 296 296 296 296 296 296 296 296 297 299 300 301 305 311 317 317 316 315 314 314 313 312 312 312 312 311 311 311 311 311 310 310
311 312 312 312 311 311 311 311 311 311 311 310 310 310 310 310 310 310 310 309 308 307 308 309 309 310 310 310 311 311 311 310 308 305 303 304 305 306 304 301 300 301 299 299 300 301 301 301 300 300 299 299 299 298 297 296 296 296 296 296 296 296 296 297 297 298 302 311 317 317 316 316 314 314 313 312 311 311 310 310 311 311 311 310 310
307 308 308 307 307 307 307 307 306 306 306 305 305 306 307 307 307 307 307 305 304 304 305 307 308 308 309 309 309 309 309 307 304 303 304 305 305 304 302 301 301 300 300 301 302 302 301 300 300 300 299 300 300 300 299 298 297 297 296 296 296 296 296 296 296 297 297 302 311 316 317 317 316 314 313 312 312 311 310 309 310 311 311 311 311
302 302 303 302 302 302 303 303 302 302 302 302 302 303 304 305 305 306 305 304 303 302 303 305 305 306 307 308 309 308 307 304 303 303 304 303 302 302 302 301 300 301 302 302 301 301 301 301 301 301 300 300 300 300 300 300 299 299 298 298 297 296 296 296 296 296 296 297 303 309 314 317 316 315 314 312 312 312 311 309 310 311 311 311 311
300 300 300 300 300 300 299 300 300 299 299 299 300 300 300 301 302 304 304 304 302 301 301 302 302 304 306 308 308 307 307 305 303 303 302 301 302 302 301 301 301 301 301 300 300 300 300 301 301 301 300 301 301 301 301 301 301 301 301 300 299 298 297 296 296 295 296 296 297 303 310 316 316 315 315 314 313 313 311 311 310 311 311 311 311
298 298 298 298 298 297 297 297 297 297 297 297 297 297 297 298 299 300 302 303 302 301 300 300 300 302 304 305 306 307 307 305 303 303 302 302 303 301 300 301 300 299 299 299 299 299 299 299 298 299 299 299 300 300 300 301 301 301 302 302 301 300 299 298 297 296 296 296 296 298 304 312 315 316 316 315 315 314 312 312 311 312 311 311 310
294 294 294 294 294 293 294 294 294 294 293 293 294 294 295 295 296 297 298 300 301 300 299 299 299 299 301 302 304 305 304 302 302 303 302 302 301 300 300 300 299 297 297 298 298 298 298 297 296 296 296 297 297 298 298 299 300 300 301 301 301 301 300 299 298 298 296 296 296 297 299 304 310 314 316 316 315 315 314 313 313 312 311 310 310
289 289 289 289 289 289 289 289 289 289 289 289 290 290 291 291 292 293 294 297 298 297 298 298 297 297 298 299 300 301 300 300 301 302 301 301 300 300 299 299 297 296 296 296 295 295 295 294 294 294 294 295 296 296 297 297 297 298 299 299 300 300 299 299 298 298 297 296 296 297 298 299 303 308 312 315 316 315 315 314 313 312 311 311 310
287 287 287 287 287 287 287 287 287 287 287 287 287 287 287 288 288 288 289 291 293 294 295 296 295 295 296 297 297 298 299 299 299 298 298 299 298 299 298 296 294 294 295 295 294 294 293 291 290 291 292 292 294 295 296 296 296 296 297 297 298 297 297 298 297 297 297 297 296 296 296 297 299 303 306 310 313 315 315 314 314 313 312 311 311
287 287 287 287 287 287 287 287 287 287 287 287 286 286 286 287 287 287 287 287 288 290 291 292 292 292 293 293 294 295 296 297 297 296 295 295 295 296 295 293 292 293 293 292 292 293 292 290 289 288 289 289 290 292 294 295 295 296 296 296 296 295 295 295 295 296 296 296 296 296 295 296 298 300 303 305 308 311 314 315 314 314 313 313 312
287 287 287 287 287 287 287 287 287 287 287 286 286 286 286 286 286 286 286 286 286 286 287 288 289 289 290 291 291 292 293 293 293 293 293 293 292 293 293 291 291 292 291 290 291 290 288 290 289 288 289 289 290 291 290 291 292 293 294 294 295 295 295 295 295 295 295 295 295 295 295 295 296 298 301 303 305 307 310 313 314 314 314 313 313
286 286 286 286 286 286 286 286 286 286 286 286 286 286 285 285 285 285 285 285 285 285 285 286 286 285 286 289 290 290 290 291 291 291 291 292 291 291 292 291 291 291 290 289 289 287 286 288 288 289 291 290 290 290 290 289 289 288 289 289 291 292 293 294 295 295 295 295 294 294 295 295 295 295 297 300 302 304 306 309 311 313 313 313 313
285 285 285 285 285 285 285 285 285 285 285 285 285 285 285 285 285 285 285 285 285 285 284 284 284 284 284 286 287 288 289 290 290 290 290 290 290 290 290 290 290 291 290 289 287 286 287 287 287 288 290 290 290 290 289 289 288 287 287 287 287 288 289 290 292 293 294 295 295 294 294 294 294 294 295 296 298 300 303 305 307 309 311 312 313
285 285 285 285 285 285 285 285 285 285 285 284 284 284 284 284 284 284 284 284 284 284 284 284 284 284 283 284 285 286 287 287 287 288 289 289 289 289 289 289 289 290 290 289 288 287 287 287 287 288 288 288 288 288 288 290 289 288 287 287 287 287 287 287 288 289 290 292 293 294 294 294 294 294 294 294 295 298 302 304 305 305 307 309 311
285 285 285 285 285 285 285 285 285 284 284 284 284 284 284 284 284 284 284 284 284 284 284 284 284 284 284 283 284 284 285 285 285 286 287 287 288 288 288 288 288 288 289 289 289 289 288 288 288 288 287 287 288 288 288 290 290 289 287 287 287 287 287 287 287 287 287 288 290 292 294 295 295 294 294 294 294 296 300 304 305 305 306 305 307
284 284 284 284 284 284 284 284 284 284 284 284 284 284 284 284 284 284 284 284 284 284 284 284 284 284 283 283 283 283 284 283 284 285 286 286 286 287 287 287 287 288 288 289 289 289 289 289 289 289 288 288 289 290 290 291 290 289 287 287 286 287 287 287 287 287 287 287 287 288 290 292 294 295 295 295 295 295 297 300 303 305 306 307 306
285 285 285 285 285 284 284 284 284 284 284 284 284 284 284 284 283 283 283 283 283 283 283 283 283 283 283 283 283 283 283 283 283 283 284 284 285 285 286 286 287 287 288 288 288 289 289 289 289 289 289 288 288 289 290 290 289 288 287 286 286 286 287 287 287 286 286 287 287 287 287 288 291 293 295 295 295 295 295 296 298 301 303 305 306
286 286 286 286 285 285 285 284 284 284 284 283 283 283 283 283 283 283 283 283 283 283 283 283 283 283 283 283 283 282 282 282 282 282 282 283 284 284 285 286 286 286 287 287 287 288 289 288 288 288 288 289 289 289 289 288 287 286 286 285 286 286 286 287 287 287 286 286 286 286 287 287 287 289 292 294 295 295 295 295 295 296 296 297 299
287 287 286 286 286 286 285 285 285 284 284 283 283 283 283 283 282 282 282 282 282 282 282 282 282 282 282 282 281 281 281 281 281 281 281 282 283 283 284 285 285 285 285 285 286 287 287 287 288 288 288 288 288 288 287 286 286 285 285 285 285 285 286 286 287 287 286 286 286 286 286 286 286 287 288 290 293 294 295 295 295 295 294 294 294
287 287 287 287 287 286 286 286 285 284 284 283 283 283 283 282 282 282 282 282 282 282 282 282 282 282 282 281 281 281 281 280 280 281 281 281 282 282 282 283 284 284 285 284 285 286 286 286 287 287 286 286 286 286 285 285 285 285 285 285 285 285 286 286 286 286 286 287 286 286 286 286 286 286 286 287 289 292 294 294 295 295 294 294 294
287 287 287 287 286 286 286 285 285 284 283 283 283 283 282 282 282 282 282 282 282 282 282 282 282 282 281 281 280 280 280 280 280 280 281 281 281 281 281 282 282 283 284 284 284 285 285 286 285 285 285 285 285 285 285 285 285 284 284 285 285 285 285 285 285 286 286 286 286 286 286 285 285 286 286 286 286 289 292 294 294 294 294 294 294
287 287 286 286 286 285 285 284 283 283 283 282 282 282 282 282 282 282 282 282 282 281 281 281 281 281 281 280 279 279 279 279 279 280 280 280 280 280 281 281 281 282 282 283 283 284 284 284 284 284 284 284 284 284 284 284 284 284 284 285 285 285 285 285 285 285 285 285 286 286 286 286 286 285 285 286 286 286 288 291 293 294 294 294 294
287 286 286 285 285 284 283 283 282 282 281 281 281 281 281 281 281 281 281 281 281 281 281 281 280 280 280 279 279 279 278 278 279 279 279 279 280 280 280 280 281 281 281 282 283 283 283 283 283 283 283 283 283 283 284 284 284 284 284 284 285 285 285 285 285 285 285 285 285 285 285 285 286 285 285 285 285 286 286 287 290 292 294 294 294
286 285 285 285 284 283 283 282 281 281 281 280 280 280 280 280 280 280 280 280 280 280 280 279 279 279 278 278 278 278 278 278 278 278 278 279 279 279 279 280 280 280 281 281 281 282 282 282 282 282 282 283 283 283 283 283 283 283 283 284 284 284 285 285 285 285 285 284 284 284 284 285 285 286 285 285 285 285 285 285 287 289 292 293 293
285 285 284 284 283 283 282 281 281 280 280 280 280 280 280 280 279 279 279 279 279 278 278 278 278 277 277 277 278 278 277 277 277 277 278 278 278 278 278 279 279 279 279 280 280 281 281 281 281 281 282 282 282 282 282 282 282 283 283 283 283 284 284 284 285 285 285 285 285 284 284 284 284 285 285 285 284 284 285 285 285 287 289 291 293
284 284 284 283 283 282 282 281 280 280 280 280 279 279 279 279 279 279 278 278 278 278 277 277 277 277 277 277 277 276 276 276 276 277 277 277 277 277 277 278 278 278 278 279 279 280 280 280 281 281 281 281 281 281 282 282 282 282 282 283 283 283 284 284 284 285 285 285 285 285 284 284 284 284 285 285 285 284 285 285 285 286 287 288 291
284 284 283 283 282 282 281 280 280 280 279 279 279 279 279 278 278 278 278 278 277 277 276 276 276 276 276 276 276 276 275 276 276 276 276 276 276 276 276 277 277 277 278 278 278 279 279 279 280 280 280 280 280 280 281 281 281 281 282 282 283 283 283 284 284 284 284 285 285 285 285 285 285 284 285 285 285 285 284 284 285 285 286 287 289
283 283 283 282 282 281 280 280 279 279 279 278 278 278 278 278 278 278 278 277 277 276 276 276 275 275 275 275 275 275 275 275 275 275 275 275 275 276 276 276 276 277 277 277 277 278 278 278 278 279 279 279 279 279 280 280 280 281 281 281 282 283 283 283 284 284 284 284 285 285 285 285 285 285 285 285 284 284 285 285 285 285 285 286 287
283 282 282 282 281 280 280 279 279 278 278 278 278 278 278 278 278 277 276 276 276 275 275 275 275 275 275 275 275 275 275 275 275 275 275 275 275 275 275 275 275 276 276 276 276 277 277 277 277 278 278 278 278 279 279 279 279 280 280 281 281 282 282 282 282 283 283 283 284 284 284 285 285 285 285 285 284 284 284 285 285 285 284 285 286
282 282 282 281 281 280 279 279 278 278 278 278 278 277 277 277 277 276 276 275 275 275 275 275 275 275 274 274 274 274 274 274 274 274 274 274 274 274 274 274 274 275 275 275 275 275 275 276 276 276 277 277 277 277 278 278 278 279 279 279 279 279 280 281 281 282 282 283 284 284 284 284 285 285 285 286 286 285 285 285 285 285 284 284 285
282 282 281 281 280 279 279 278 278 278 278 277 277 277 277 277 276 276 275 274 274 274 275 275 274 274 274 274 274 274 273 273 273 273 273 273 273 273 273 274 274 274 274 274 274 274 274 274 275 275 275 276 276 276 277 277 277 278 278 278 278 279 279 279 280 280 281 282 282 283 284 284 284 285 285 286 286 286 286 286 286 286 285 285 285
281 281 281 280 279 279 278 278 277 277 277 277 277 277 276 276 276 275 274 273 274 274 274 274 274 274 274 274 273 273 272 272 272 272 272 272 273 273 273 273 273 273 273 273 273 273 274 274 274 274 275 275 275 276 276 276 276 277 277 277 277 278 278 278 278 278 279 280 280 281 282 282 282 283 284 285 285 286 287 287 287 287 286 286 285
281 281 280 280 279 278 278 277 277 277 277 277 277 276 276 276 275 274 273 273 274 274 274 274 274 273 273 273 272 272 272 271 271 271 271 272 272 272 272 272 272 272 273 273 273 273 273 273 274 274 274 274 274 274 275 275 275 275 276 276 276 276 277 277 277 277 278 278 279 279 279 280 280 281 282 283 284 285 286 286 287 287 287 286 285
281 280 280 279 278 278 277 277 277 277 276 276 276 276 276 275 275 274 273 273 274 274 274 274 273 273 272 272 272 271 271 271 271 271 271 271 271 271 271 272 272 272 272 272 273 273 273 273 273 273 273 274 274 274 274 275 275 275 275 275 276 276 276 277 277 277 277 278 278 278 278 279 279 280 280 281 282 283 284 285 286 286 286 286 286
280 279 279 278 278 277 277 277 276 276 276 276 276 276 275 275 274 273 272 273 274 273 273 272 272 272 271 271 271 271 271 271 271 271 271 270 271 271 271 271 271 271 272 272 273 273 273 273 273 273 274 274 274 274 274 274 275 275 275 275 276 276 277 277 277 277 277 277 277 278 278 278 279 280 280 281 281 281 282 283 284 285 285 286 286
279 279 278 278 277 277 277 276 276 276 276 276 275 275 275 274 273 272 271 272 273 272 271 271 271 271 271 271 271 271 271 271 271 271 271 271 271 271 271 271 271 271 272 272 273 273 273 273 274 274 274 274 274 274 274 275 275 275 275 276 276 276 277 277 277 277 277 277 277 278 278 278 279 279 280 280 281 281 282 282 283 284 284 285 286
279 278 278 277 277 277 276 276 276 276 275 275 275 275 275 274 273 271 271 271 271 271 270 270 270 270 270 270 270 271 271 271 271 271 271 271 272 272 272 272 272 272 272 273 273 273 274 274 274 274 274 274 274 274 274 275 275 275 275 276 276 276 277 277 277 277 277 277 277 277 278 278 278 278 279 280 280 281 282 282 283 283 284 285 285
278 278 278 277 277 276 276 276 275 275 275 275 274 274 274 273 273 272 271 271 270 270 270 270 270 270 270 270 270 270 271 271 271 272 272 273 273 273 273 273 273 273 273 273 274 274 274 275 275 275 275 275 275 275 275 275 276 276 276 276 277 277 277 277 277 277 277 277 277 277 277 277 278 278 278 279 279 279 280 281 282 283 284 284 285
278 278 277 277 277 276 276 275 275 275 275 274 274 274 274 273 272 271 270 270 271 271 270 270 270 270 270 270 270 271 271 271 272 272 273 274 274 274 274 274 274 274 275 275 275 275 275 276 276 276 276 276 276 277 277 277 277 277 277 277 277 277 277 277 277 277 277 277 276 277 277 277 277 277 278 278 278 278 279 279 281 282 283 284 284
278 278 277 277 277 276 276 275 275 275 275 274 274 274 274 273 272 270 270 270 271 271 271 271 271 271 271 271 271 272 272 272 272 273 274 275 275 275 275 275 275 275 275 275 275 276 276 276 276 276 277 277 276 277 277 277 277 277 277 277 277 277 277 277 277 276 276 276 276 277 277 277 277 277 277 277 278 278 278 279 280 281 282 284 284
277 277 277 276 276 276 275 275 274 274 274 274 274 274 274 273 272 270 270 271 271 271 271 271 271 271 272 272 272 272 273 273 274 274 275 275 276 276 276 276 276 276 276 276 276 276 276 276 276 276 276 276 276 276 276 276 276 276 277 277 276 276 276 276 276 276 276 276 276 276 277 277 277 277 277 277 277 277 278 278 279 280 281 282 283
Wind_Speed
13 10 9 9 9 8 8 7 6 7 5 6 8 10 11 7 6 7 8 5 5 8 9 10 12 12 12 11 11 10 9 9 9 9 10 10 10 10 10 10 9 9 9 9 8 6 4 3 3 4 5 5 6 6 7 6 7 6 5 6 7 6 8 9 8 10 9 6 5 6 5 5 5 6 7 6 7 8 8 7 6 6 7 7 6
7 10 10 10 9 7 6 6 5 6 5 6 6 8 12 11 9 8 9 6 3 6 7 8 10 10 11 11 11 11 11 10 10 10 9 9 10 10 10 10 10 10 10 9 9 9 7 5 4 4 5 4 4 4 6 8 7 7 7 7 9 9 10 10 8 9 10 7 7 6 4 3 5 7 7 6 7 8 9 9 7 7 7 8 8
3 6 11 12 11 7 5 5 5 5 5 5 5 7 12 14 12 10 8 7 3 4 5 5 6 8 8 9 9 9 10 10 10 10 10 10 10 10 10 10 10 10 10 10 9 9 9 9 8 6 5 4 3 3 4 6 6 7 8 8 10 10 9 8 8 9 9 8 10 9 4 3 5 5 5 7 9 8 9 9 8 8 8 7 7
8 2 5 9 9 5 2 3 4 6 5 5 5 6 10 13 13 10 9 7 5 4 4 4 4 6 8 7 7 8 8 8 9 9 9 10 11 11 11 10 10 10 10 10 10 10 10 10 10 9 8 7 6 5 5 6 5 7 8 8 9 10 8 7 9 11 11 11 13 11 5 4 6 5 6 8 8 8 9 9 9 9 8 8 7
6 6 4 3 5 4 1 0 2 3 3 3 4 5 8 9 9 8 8 6 4 6 6 6 6 7 8 8 8 7 7 7 7 8 8 9 9 10 11 11 11 10 10 10 10 10 10 10 11 11 11 10 10 9 8 8 7 7 8 8 8 9 10 11 11 11 13 15 14 11 7 5 6 6 7 8 8 9 9 9 9 9 9 9 9
6 6 7 6 6 5 3 2 2 2 2 3 4 5 5 6 6 6 6 4 4 7 8 8 9 9 9 10 9 8 7 7 6 7 7 8 8 8 9 10 10 10 10 10 9 10 11 11 11 11 12 12 13 13 12 12 11 10 9 9 8 9 9 9 11 12 13 15 13 10 7 6 5 7 8 7 7 9 9 9 9 10 10 10 10
7 7 7 6 6 6 6 5 4 2 2 2 4 4 5 5 5 4 4 4 5 7 8 7 8 9 10 10 11 10 9 8 8 8 7 8 8 8 8 8 9 9 9 9 9 9 10 11 12 12 12 12 13 13 13 14 14 14 14 13 12 11 9 8 10 12 12 13 12 11 9 7 7 8 7 6 8 9 10 10 10 10 11 11 11
10 8 7 7 6 7 7 7 6 5 5 4 3 4 5 4 4 4 4 5 6 6 7 7 7 8 9 11 11 11 11 11 10 9 9 9 8 8 8 8 8 8 9 9 9 10 10 10 11 12 12 12 12 13 13 14 14 16 16 16 16 15 13 10 11 11 10 12 14 13 13 11 9 8 7 6 8 9 10 11 11 11 11 11 12
17 15 14 14 12 12 11 10 10 9 9 9 9 9 9 8 7 7 5 5 6 6 6 6 6 7 9 10 10 11 11 10 10 10 9 9 9 9 9 9 9 9 10 9 10 10 11 10 11 12 12 12 12 12 13 13 14 15 15 16 17 18 17 16 16 11 7 12 17 16 16 14 12 11 9 9 10 10 10 11 12 12 12 12 12
20 19 19 18 17 17 16 15 14 13 13 13 13 12 12 10 9 9 7 6 6 6 7 8 8 8 8 8 8 9 9 10 9 8 7 8 8 8 9 10 10 10 10 10 10 11 11 11 11 11 11 11 12 12 13 13 14 14 14 15 16 17 18 19 19 14 9 10 15 18 17 15 15 14 12 13 12 10 10 11 12 12 13 13 13
20 20 20 19 18 18 17 15 14 14 13 13 13 12 11 11 9 9 8 8 8 9 10 11 11 9 9 8 8 8 9 8 6 5 4 6 7 9 10 10 10 11 11 11 12 13 14 14 14 13 13 11 11 11 12 12 13 14 14 15 15 16 17 18 19 18 15 12 12 17 20 18 17 16 15 15 13 11 11 12 13 13 13 13 13
18 18 18 18 17 16 15 15 14 13 13 14 14 13 12 11 10 11 9 9 12 12 13 12 9 8 8 7 7 7 6 5 3 2 5 8 10 10 9 10 12 12 12 12 14 15 16 16 16 16 16 15 14 13 12 12 12 12 13 14 15 16 16 17 18 18 19 17 13 15 18 19 19 18 17 17 14 12 13 12 13 13 13 13 13
18 18 18 18 18 18 17 18 17 17 17 17 17 15 15 12 10 11 11 10 13 15 15 11 7 9 8 6 4 3 3 2 2 5 9 11 10 9 9 11 12 13 14 16 16 17 17 17 18 18 18 18 17 17 16 15 14 13 13 14 14 15 16 17 17 18 19 19 18 17 16 18 22 21 19 19 16 15 15 13 12 13 14 14 13
21 21 21 21 21 21 20 20 20 20 20 19 19 18 18 16 11 10 10 11 12 16 18 12 8 11 9 6 3 1 1 3 4 11 11 8 8 9 11 10 11 15 18 17 16 17 19 19 19 19 19 19 19 19 19 18 18 17 16 16 15 15 15 16 17 18 19 19 20 20 17 16 21 23 21 20 18 16 17 17 14 13 14 14 13
23 22 22 22 22 22 21 20 20 20 20 20 20 19 19 19 16 11 9 10 11 15 18 15 11 11 7 5 4 4 1 5 9 16 7 6 9 10 10 10 13 18 18 16 17 19 21 21 21 20 20 20 20 21 20 20 20 19 19 18 18 17 16 15 15 16 18 20 20 20 18 16 19 21 20 20 18 17 19 19 16 14 14 14 13
24 23 23 23 23 23 22 22 21 21 22 22 21 21 20 19 19 16 11 10 11 13 16 16 14 11 7 4 4 4 0 3 15 12 2 6 10 7 7 10 13 15 15 17 19 19 19 21 22 21 21 20 20 20 21 21 21 21 21 20 20 19 19 18 16 16 16 18 20 21 19 17 19 21 21 21 19 19 20 19 17 16 15 15 14
27 27 27 27 26 26 26 25 25 26 26 26 25 24 22 21 20 18 15 11 10 10 12 14 16 14 9 5 3 3 3 9 14 5 2 9 7 5 8 8 10 13 16 16 17 16 16 19 21 22 22 21 20 20 20 21 21 21 21 21 20 20 20 20 19 17 16 16 18 20 21 20 20 21 22 23 23 22 21 20 19 18 18 17 15
28 28 28 28 27 27 27 27 27 27 27 27 26 25 24 24 23 21 20 14 10 11 11 11 13 15 12 8 5 4 5 10 9 4 7 8 4 7 8 7 10 14 13 13 15 17 17 19 20 21 22 21 20 20 19 19 20 19 19 19 19 19 20 19 19 19 18 17 17 18 20 22 22 22 23 24 24 23 22 22 21 20 20 19 17
28 27 27 26 26 26 26 26 26 26 26 25 26 25 24 23 23 23 22 19 14 12 12 10 10 13 12 9 7 5 5 7 5 6 8 5 6 10 7 9 14 12 10 12 14 16 18 21 22 22 21 21 20 19 18 18 18 18 18 17 17 18 19 19 19 19 19 18 18 17 18 20 22 23 24 25 25 24 22 23 23 22 22 21 21
26 25 25 24 24 24 24 24 24 23 24 23 23 22 21 20 20 20 21 21 19 15 13 12 11 11 11 10 9 7 6 5 5 6 7 6 9 9 9 17 19 10 10 15 13 14 18 19 21 22 21 22 21 19 19 18 18 18 17 18 18 19 19 19 19 19 19 19 19 19 18 19 20 22 23 24 25 25 25 26 27 26 24 24 24
24 23 23 22 22 22 21 21 21 21 20 20 19 18 18 18 18 18 18 18 18 16 14 14 12 11 11 10 10 9 7 5 6 8 7 7 7 7 12 20 17 9 14 18 15 20 22 18 20 20 18 21 21 19 19 18 18 18 17 18 19 20 20 20 20 20 19 19 19 19 19 20 20 21 22 23 24 25 25 26 29 29 28 26 26
22 21 21 20 20 19 19 19 19 18 18 17 17 16 16 16 15 15 15 15 15 15 14 13 12 12 11 9 8 9 7 6 7 9 8 7 8 9 13 16 13 13 18 20 23 28 25 19 21 18 15 18 19 19 20 19 19 19 19 20 20 20 21 21 21 21 21 21 20 20 19 20 20 21 21 22 23 24 24 25 27 29 29 27 26
21 20 19 19 18 18 18 18 17 16 16 16 15 15 14 14 13 13 13 13 12 12 12 11 11 11 11 9 8 7 6 6 8 9 8 8 9 10 13 15 15 16 17 22 28 28 23 22 22 16 15 19 18 18 19 19 21 21 21 22 22 22 21 21 22 23 23 23 23 22 21 20 20 20 21 22 22 23 24 24 25 27 27 28 29
19 19 18 17 17 16 16 16 15 15 15 15 14 14 13 13 13 13 12 12 12 12 11 11 11 11 11 10 8 7 5 6 7 8 8 10 10 10 13 14 14 15 17 20 25 25 24 25 21 16 19 22 19 20 19 18 20 22 24 25 26 26 24 23 23 24 25 25 25 25 24 23 22 21 21 21 22 23 24 24 25 26 27 28 30
18 17 17 16 15 15 14 14 14 14 14 14 13 13 13 13 13 14 14 13 13 14 13 13 13 12 12 11 10 8 7 7 8 8 8 10 10 11 13 13 13 16 17 16 17 20 22 21 19 19 24 24 21 21 19 17 18 22 25 28 30 31 28 26 26 26 26 25 26 26 26 27 26 25 24 22 22 22 23 24 25 25 26 27 29
17 17 16 15 15 15 14 14 14 14 13 13 13 14 14 14 14 14 14 15 15 15 15 14 14 14 13 13 13 11 9 10 10 8 8 8 9 10 13 13 13 16 17 14 14 15 15 14 13 17 23 24 20 18 16 15 17 22 26 31 35 34 32 30 29 28 28 26 26 26 26 27 28 28 28 27 25 24 23 24 25 25 25 26 27
16 16 15 15 15 14 14 14 14 14 14 14 14 14 14 14 14 14 15 15 15 15 15 15 15 15 15 15 15 13 12 13 12 10 8 8 9 10 11 10 10 12 13 13 14 14 13 13 12 14 18 19 18 17 18 20 22 26 30 36 38 36 34 33 33 31 29 28 28 28 27 27 27 28 29 29 29 28 26 24 24 25 26 27 27
16 15 15 15 15 15 15 15 15 15 15 16 16 16 16 16 16 16 16 16 16 16 16 17 17 16 16 17 16 15 15 16 15 13 11 10 9 9 9 9 9 9 9 10 11 11 12 13 15 15 14 14 14 15 20 27 31 32 35 38 38 38 36 35 35 32 31 30 29 29 29 28 27 28 28 29 30 30 29 28 26 25 25 28 31
17 17 17 16 16 16 16 16 16 17 17 17 17 17 18 18 18 18 18 19 19 18 18 19 18 18 18 18 17 16 15 16 16 14 13 11 9 9 9 9 9 8 8 9 9 11 13 15 17 17 15 14 16 22 28 32 34 34 36 37 37 37 35 33 35 34 32 32 32 31 31 30 29 29 28 29 30 30 30 30 29 27 26 26 29
17 17 17 17 16 16 16 16 16 16 17 17 17 17 17 17 18 18 19 19 19 19 19 20 20 19 19 20 19 16 16 17 16 14 12 10 9 9 9 9 10 9 10 10 10 14 16 16 19 21 23 23 23 29 34 33 32 33 33 35 37 35 33 33 35 36 35 34 34 34 33 32 32 31 30 30 30 31 31 31 30 30 29 28 27
16 16 15 15 14 14 14 14 14 14 15 15 15 16 16 16 16 17 18 18 18 18 19 19 20 20 20 20 19 17 16 16 15 12 11 10 10 10 11 10 11 11 13 12 11 15 18 17 22 26 28 32 31 30 32 31 30 33 30 29 32 33 33 35 35 35 37 38 37 36 35 35 34 33 33 33 32 31 31 31 31 31 30 30 29
13 13 13 12 12 12 12 12 12 13 13 14 14 14 15 15 15 16 16 17 18 18 18 19 19 20 20 19 19 18 18 17 14 11 11 11 11 11 11 11 12 12 14 14 12 18 23 21 24 26 24 28 34 34 35 33 29 28 27 24 26 29 31 33 35 35 36 38 38 38 37 35 35 35 34 34 33 33 32 32 32 32 31 31 30
11 11 11 11 11 12 12 12 13 13 14 14 14 14 14 15 15 15 16 17 17 17 18 18 19 19 19 19 19 17 16 16 14 12 12 12 12 12 12 12 14 12 13 15 15 19 27 25 23 26 21 20 28 31 30 32 31 28 26 25 25 25 26 28 33 35 35 35 37 38 38 37 36 35 35 34 34 34 34 34 33 32 32 32 31
9 10 11 12 13 13 14 14 14 14 15 15 15 15 14 15 15 15 16 16 17 17 17 18 18 18 18 17 16 14 14 15 15 14 13 13 13 13 13 13 15 15 13 16 17 18 25 28 25 27 23 17 21 25 21 24 32 32 29 28 25 23 24 25 28 31 33 36 37 38 39 38 36 36 35 35 35 35 35 35 35 33 32 32 32
9 10 12 13 14 14 14 15 15 15 15 15 15 15 15 15 15 15 16 16 16 16 17 17 17 16 16 15 14 13 14 15 15 14 13 13 13 13 15 14 15 17 15 16 18 19 22 27 27 27 26 20 18 22 20 20 27 31 30 29 27 25 24 24 24 27 29 30 33 35 37 37 37 35 35 35 34 35 35 35 35 34 33 32 32
9 10 12 13 14 15 15 15 15 15 15 15 15 15 15 15 15 15 15 16 16 16 16 16 16 15 14 14 14 15 16 15 14 13 12 13 14 14 16 16 15 17 17 15 18 19 21 25 27 26 27 25 21 22 22 21 22 26 27 27 27 26 26 25 24 25 26 26 29 33 35 34 34 34 34 34 34 33 34 34 35 35 34 33 32
9 10 12 13 14 14 15 15 15 15 15 14 14 14 14 15 15 15 16 16 17 17 17 17 16 14 13 14 14 15 15 14 14 13 13 14 16 15 15 16 16 16 17 17 17 19 21 24 28 28 27 26 24 22 22 22 23 25 25 25 26 27 27 27 25 24 25 24 25 28 30 29 29 31 32 33 34 34 33 34 34 34 34 33 32
8 10 11 13 14 14 14 14 14 14 14 14 14 14 14 15 15 16 16 16 17 17 17 17 15 14 14 14 14 13 13 14 14 14 14 15 16 16 16 16 17 17 18 18 18 19 21 23 26 28 27 26 25 24 22 22 24 25 26 25 25 24 24 25 25 24 23 23 23 24 25 27 28 29 31 33 35 36 36 35 35 35 35 34 33
8 10 11 13 13 14 14 14 14 13 13 13 13 14 14 15 16 16 16 16 17 17 16 15 14 14 15 14 14 14 13 13 14 14 15 16 16 17 17 17 17 17 18 18 18 19 20 22 23 25 26 25 24 24 23 22 23 23 23 24 24 23 23 24 27 28 27 25 25 25 25 26 28 29 31 33 35 36 37 37 36 36 36 36 35
8 9 11 13 13 14 14 14 13 13 13 13 13 14 14 14 15 15 16 16 16 16 16 15 15 15 16 15 14 13 13 13 14 14 15 16 17 18 18 17 17 18 18 18 18 18 19 21 22 22 23 24 23 23 23 22 22 22 20 22 25 26 26 25 26 27 27 26 26 26 25 25 26 27 28 29 30 31 33 33 33 34 35 35 35
9 10 11 13 14 14 14 14 13 12 12 13 13 13 14 14 14 15 16 16 15 15 15 15 16 15 15 14 13 14 17 19 18 18 17 16 17 18 18 17 17 18 18 18 17 18 18 19 21 20 21 22 21 21 21 20 21 23 22 23 25 26 25 26 27 26 25 26 28 27 25 22 23 24 23 24 25 25 26 27 28 30 30 29 30
9 10 12 13 14 14 14 14 13 12 12 12 12 12 12 13 14 14 15 16 15 13 12 13 15 15 14 14 14 17 20 22 20 19 18 17 17 18 18 18 17 18 19 19 18 18 19 20 20 20 20 21 20 21 22 22 23 25 24 23 25 26 24 25 27 25 21 23 26 28 28 25 24 25 25 24 25 24 23 23 24 26 26 27 28
10 11 12 13 14 14 14 14 13 12 12 12 12 12 11 11 12 13 14 14 13 12 11 11 13 15 15 15 15 16 18 18 18 18 18 18 17 18 18 18 18 19 19 20 19 19 19 20 21 20 20 22 21 21 22 23 23 23 23 23 24 25 23 21 22 22 18 19 24 29 32 30 26 27 29 28 27 26 24 24 25 25 27 29 31
11 12 13 14 14 14 14 14 13 12 12 12 12 12 11 11 11 11 12 13 12 11 11 12 14 16 15 16 16 15 16 17 18 18 19 18 18 18 18 17 18 18 18 19 19 20 20 22 23 23 22 23 23 21 20 21 22 22 22 22 22 23 24 22 22 24 22 22 26 30 33 31 25 26 30 29 28 28 27 28 28 27 28 31 33
12 12 13 14 14 14 14 14 13 12 12 12 12 12 11 11 10 10 12 13 11 12 14 15 16 16 15 16 16 15 16 17 18 18 18 18 18 18 17 17 17 17 18 19 20 22 24 25 27 27 25 24 24 22 20 21 24 24 24 24 24 24 26 25 26 29 27 25 28 31 34 33 24 24 30 28 25 27 27 29 31 31 31 31 32
13 13 14 15 15 14 14 15 14 13 12 12 12 11 11 11 9 9 12 13 13 16 17 16 14 14 14 15 16 17 17 17 17 17 18 19 19 18 17 18 19 20 21 23 25 27 28 28 29 29 27 26 25 26 26 26 28 28 27 27 27 27 28 28 29 32 29 26 26 28 31 30 22 22 30 28 23 24 26 27 30 31 31 31 31
14 14 15 15 15 15 15 15 15 13 12 12 12 11 11 11 9 10 13 14 15 16 15 13 12 12 13 14 15 17 18 18 18 18 19 20 19 20 22 26 28 28 26 26 27 28 28 27 28 29 28 28 27 29 30 29 30 31 30 30 30 30 31 30 29 30 27 24 24 23 27 29 22 22 30 28 24 26 26 26 28 29 30 31 31
14 15 16 16 16 16 15 15 15 14 12 11 12 11 11 11 10 12 14 14 14 14 12 12 11 11 12 13 15 17 19 20 20 20 21 22 23 25 29 33 36 35 33 31 30 30 30 30 31 32 31 31 32 33 33 33 33 33 32 32 31 30 31 29 28 28 26 24 23 23 27 29 23 23 30 27 24 27 29 28 28 28 28 30 30
15 16 17 17 16 16 15 15 16 15 12 11 12 12 12 11 11 12 13 12 12 12 12 12 13 12 12 13 16 19 20 21 21 22 23 25 26 28 31 34 34 34 34 32 28 30 33 35 36 37 36 36 37 37 37 36 35 34 33 31 28 27 28 24 21 25 26 25 24 24 28 30 24 24 30 27 23 25 28 28 28 27 28 30 32
16 17 17 18 17 16 16 15 16 16 14 12 12 12 12 11 11 11 12 11 11 12 13 13 12 12 13 16 19 21 21 21 22 25 26 26 27 28 30 32 32 31 31 30 28 30 32 33 34 35 35 35 35 35 34 33 32 30 31 31 29 28 28 24 22 26 27 27 26 23 26 28 23 23 28 27 24 25 26 25 25 24 24 26 28
18 17 17 18 18 17 16 15 15 16 16 13 12 13 13 12 10 10 10 10 11 12 12 13 14 15 17 18 19 20 21 23 25 26 27 26 27 28 28 29 30 29 28 28 27 28 28 28 29 29 29 28 27 27 26 27 28 28 31 32 31 29 29 28 27 24 20 20 22 21 23 25 23 23 25 22 18 18 19 20 20 20 23 26 26
Wind_Direction
235 235 236 233 240 236 232 249 246 231 255 275 262 252 248 255 285 312 327 329 1 8 10 17 13 6 1 357 357 351 340 332 327 327 325 321 316 311 308 305 304 305 303 305 304 287 284 337 318 300 301 306 318 309 307 310 302 301 300 297 290 293 312 313 316 327 327 320 325 323 319 327 323 324 334 338 346 339 322 321 324 319 316 327 331
235 239 247 243 239 234 243 261 245 236 267 276 259 254 250 253 268 287 308 309 341 12 10 15 15 13 7 359 356 352 347 341 333 327 323 318 313 308 305 304 302 302 303 302 303 297 283 273 258 257 272 299 337 314 296 302 298 293 296 291 286 292 301 300 314 324 314 307 315 318 305 296 301 312 322 324 329 326 319 317 312 307 302 309 318
44 246 244 240 231 220 241 268 259 247 257 258 250 249 247 248 251 264 288 286 294 3 357 357 4 6 6 5 2 359 354 348 341 333 325 317 312 308 305 304 302 300 302 302 302 300 293 283 273 267 261 257 290 301 288 288 295 302 295 285 285 294 300 300 316 314 300 298 305 307 297 271 280 299 310 309 317 322 321 321 317 309 303 309 315
54 24 234 222 210 195 227 275 263 237 234 256 259 251 251 248 247 261 281 275 272 288 299 321 338 345 351 356 359 360 0 359 355 344 332 321 314 313 312 310 308 302 301 302 303 302 300 294 287 283 272 251 245 258 271 268 288 314 301 286 281 284 285 284 298 299 291 291 291 289 281 269 273 276 287 294 307 318 318 317 316 313 310 307 310
75 61 66 141 154 134 106 355 289 248 236 289 294 278 266 254 250 266 278 276 277 286 301 322 323 328 338 342 345 350 354 357 1 357 347 336 326 324 323 321 318 313 308 305 304 303 304 302 297 292 282 275 265 261 262 257 271 300 307 304 288 279 281 278 281 284 283 281 276 274 271 268 266 268 285 296 301 309 311 310 309 309 310 304 301
80 82 75 81 94 92 84 60 1 338 347 340 334 323 299 281 274 274 279 283 295 301 310 317 318 326 332 336 336 334 338 340 342 348 350 348 344 339 335 331 325 320 316 312 309 306 307 306 302 299 292 287 282 275 269 263 264 272 285 294 292 290 292 291 288 281 278 273 259 246 247 257 257 266 284 292 294 300 302 302 302 301 303 300 297
67 74 78 67 58 60 59 50 40 30 21 351 344 348 337 318 307 309 320 318 305 304 308 307 314 327 328 327 325 321 325 326 324 329 336 341 344 345 342 337 330 322 317 313 310 306 306 306 302 301 299 295 291 287 281 274 271 267 267 267 270 283 295 308 305 294 284 267 243 226 237 262 268 271 285 289 288 290 292 296 297 295 297 294 290
83 79 81 76 64 60 61 62 69 75 79 72 50 41 29 9 359 359 348 338 331 322 320 312 307 309 311 314 314 316 322 324 324 324 327 331 335 337 336 335 333 328 324 320 314 305 299 299 301 302 304 303 299 295 291 287 282 276 273 268 265 269 274 283 295 307 299 263 246 246 257 272 278 280 279 277 281 282 286 291 291 290 292 291 287
88 88 87 86 85 82 79 77 80 84 85 80 77 76 70 65 56 46 33 12 3 355 342 331 319 305 303 307 308 313 319 321 323 326 330 334 334 334 335 335 334 336 338 335 328 320 312 304 302 301 302 304 302 300 299 296 293 289 285 281 276 273 270 269 273 291 301 265 257 260 267 271 280 287 269 254 266 274 281 284 285 286 287 287 286
87 88 88 87 86 84 82 79 76 76 74 74 74 75 76 71 61 56 51 42 27 10 357 343 334 324 314 312 311 311 312 313 319 326 334 341 346 352 353 351 351 354 355 353 352 349 343 337 329 320 313 309 305 302 300 298 296 294 292 290 286 283 280 275 271 268 267 266 260 262 271 271 277 284 265 255 265 268 275 280 282 284 284 285 284
87 88 88 88 86 83 81 77 72 69 66 69 68 64 63 58 53 52 43 38 31 15 5 351 339 332 329 328 321 313 305 306 313 324 353 9 8 4 3 5 9 10 11 12 12 8 4 360 356 350 343 335 325 315 308 302 298 294 293 291 289 288 286 283 278 270 263 267 262 259 267 268 272 277 265 262 264 262 274 274 270 274 275 279 281
86 87 86 86 85 82 80 76 71 68 65 66 63 60 61 57 53 50 44 38 33 24 12 358 343 335 334 331 325 321 314 307 314 16 23 7 355 354 4 11 12 14 16 14 7 1 0 360 358 355 350 344 339 333 327 319 312 305 300 294 290 288 287 285 283 279 271 269 264 257 258 256 264 272 267 265 259 261 281 273 258 263 264 267 273
85 86 86 85 83 81 79 76 74 71 70 69 66 64 64 64 58 51 54 48 35 28 18 8 353 345 337 324 315 323 334 326 77 35 3 347 350 6 11 9 13 12 4 357 353 352 354 354 352 350 347 344 341 337 333 329 325 323 317 309 302 294 290 286 281 281 277 272 269 268 266 255 260 268 265 265 260 257 278 280 261 259 260 260 264
84 84 84 84 82 80 77 78 78 74 71 69 65 62 59 61 58 49 55 54 43 32 26 27 7 345 332 319 325 342 353 118 58 2 351 359 17 16 7 10 8 356 350 350 350 346 342 341 341 340 339 337 336 334 332 330 328 327 324 320 317 310 303 295 285 279 276 275 272 274 277 260 258 267 266 266 260 249 264 278 270 257 255 254 255
83 82 81 81 80 79 77 76 76 74 71 66 62 60 57 57 56 51 49 48 47 37 33 37 15 347 331 319 344 345 165 122 6 344 354 35 20 11 8 10 355 345 345 345 341 337 333 331 331 330 330 329 327 327 325 324 322 321 321 320 320 318 315 309 300 290 279 274 272 273 277 263 255 260 263 264 259 252 259 270 270 257 248 246 249
83 82 81 81 81 81 79 77 76 75 73 69 65 62 60 58 57 57 55 45 44 40 37 40 31 15 357 321 315 326 300 12 342 337 59 13 3 16 6 355 350 346 345 339 336 336 335 335 335 332 329 326 324 322 320 318 316 315 314 315 318 318 316 315 311 305 293 282 274 271 273 269 261 257 254 254 254 256 256 255 259 254 246 244 247
85 84 83 82 81 81 80 78 76 75 73 71 69 66 64 64 62 61 62 54 47 45 41 39 41 40 28 2 332 330 344 337 332 333 1 343 356 15 351 350 355 349 343 341 342 342 339 339 342 343 340 335 330 326 324 321 318 316 314 312 314 315 314 313 311 309 305 297 286 277 272 271 269 265 261 257 255 259 256 249 252 254 253 251 249
85 83 82 80 79 77 76 75 73 72 71 70 68 64 62 62 62 61 62 61 54 50 45 39 42 44 42 41 27 347 329 327 326 324 326 335 357 345 343 355 349 342 341 345 346 345 344 341 341 343 344 343 339 334 329 327 326 324 320 316 314 314 312 311 310 308 306 304 298 289 280 273 271 268 266 264 263 265 259 248 249 253 255 254 251
83 80 79 77 75 74 73 71 71 70 69 67 66 63 60 58 58 57 58 58 56 52 43 38 41 39 39 40 29 5 339 334 337 330 321 324 331 328 335 344 339 339 342 342 341 342 344 344 345 345 345 347 348 344 338 334 333 332 330 328 324 321 318 314 311 308 305 303 301 297 289 280 275 272 269 266 266 267 259 248 246 249 250 251 251
80 78 76 74 72 71 69 68 68 67 66 65 65 63 60 58 57 55 56 55 56 55 45 40 39 32 29 28 23 15 5 3 355 338 323 312 320 326 326 329 334 337 337 338 339 338 337 338 344 348 349 351 351 350 349 346 345 342 340 338 334 331 328 324 320 315 310 304 300 298 294 288 281 277 274 272 270 267 261 255 252 250 249 250 250
79 77 74 72 70 69 68 67 66 65 65 65 63 62 60 58 56 55 55 55 55 56 51 46 41 32 27 21 15 11 5 4 356 343 329 312 316 325 322 326 331 324 326 332 329 331 333 331 337 342 346 348 346 346 348 351 353 351 347 342 336 333 331 328 326 323 318 312 304 298 294 291 287 282 279 275 274 272 267 262 259 257 257 257 251
78 76 74 71 70 69 68 67 67 66 66 65 62 60 56 54 53 51 51 51 51 50 48 46 41 33 31 24 14 9 360 351 348 344 332 314 308 313 317 322 321 313 321 325 321 326 330 329 332 334 334 337 338 337 339 342 345 347 346 342 338 334 329 327 325 323 321 319 315 309 301 294 290 287 284 279 274 272 271 267 263 262 261 260 253
78 75 73 70 68 66 65 65 65 63 61 60 58 55 53 49 48 45 43 43 42 39 37 34 31 24 23 25 18 8 357 340 336 335 325 314 308 307 311 312 307 303 310 315 317 323 325 325 329 328 325 328 327 327 329 329 333 335 336 335 335 334 331 328 326 321 319 316 314 312 310 304 298 292 287 284 278 273 271 269 266 264 261 258 254
77 73 69 66 64 61 59 58 56 54 52 50 48 45 43 40 37 35 33 32 30 28 24 21 20 15 12 14 10 2 352 335 328 324 316 312 308 302 306 311 306 299 303 308 314 318 318 321 325 319 321 325 321 320 321 318 321 324 324 325 327 327 325 324 323 320 318 314 310 307 306 305 303 301 296 291 287 280 275 273 269 267 263 260 258
76 71 66 62 60 56 53 51 48 46 43 40 37 34 32 29 26 24 22 20 18 18 16 12 11 9 6 4 0 356 346 336 331 321 313 311 307 302 305 309 301 299 304 303 304 311 315 319 320 316 319 322 318 317 315 309 310 313 315 317 318 320 318 316 316 316 315 313 311 308 304 301 299 299 299 296 294 289 283 278 273 269 266 262 260
74 69 64 58 54 51 48 45 42 40 36 33 30 26 24 22 19 16 15 14 12 11 9 7 5 2 1 358 355 353 343 339 338 327 319 317 312 310 311 308 297 295 301 301 299 303 308 312 310 309 316 318 314 311 306 301 303 305 306 309 311 313 313 311 311 311 310 309 309 308 307 304 299 296 294 294 294 293 289 284 277 272 269 266 263
70 64 58 52 48 43 39 36 33 31 28 25 22 19 17 15 13 11 9 7 7 6 4 1 359 357 356 353 351 349 341 339 339 331 323 317 311 311 312 312 307 301 302 304 301 295 296 303 301 299 306 308 305 305 301 298 300 300 301 304 307 308 308 307 306 305 304 302 302 304 305 305 303 299 295 291 289 289 289 287 282 276 269 265 260
64 57 51 45 39 34 30 26 23 20 17 15 14 12 11 10 8 7 5 4 4 3 2 360 357 354 352 351 349 345 339 337 337 333 326 319 310 306 305 306 309 310 310 309 304 299 302 307 305 301 300 298 297 300 298 298 301 301 301 303 305 306 305 304 303 302 300 298 296 297 299 300 301 300 297 293 289 285 285 284 283 281 275 267 259
56 48 41 35 30 25 21 17 14 11 8 7 5 4 5 5 3 2 1 2 2 360 358 357 355 352 349 348 346 342 336 335 334 330 324 317 308 299 296 295 297 301 306 308 304 302 306 307 304 301 300 297 294 297 298 299 301 303 304 304 304 304 304 302 301 300 298 296 294 293 293 294 295 295 295 295 292 287 283 281 281 281 281 278 269
48 42 35 29 23 18 13 9 6 3 1 0 359 358 358 358 357 356 355 355 356 354 351 351 350 348 345 343 342 338 332 331 329 324 317 310 301 297 293 288 283 282 289 297 295 293 298 302 299 296 299 299 296 297 300 300 301 303 302 302 302 302 300 299 299 299 298 295 293 292 291 291 289 289 291 292 292 289 285 281 280 279 279 280 277
44 37 30 25 19 14 9 3 360 358 355 354 353 351 351 352 351 351 350 349 350 349 347 346 345 344 342 340 338 334 330 329 325 319 313 305 299 298 294 287 280 275 278 284 286 288 292 295 293 292 297 301 301 299 299 298 300 303 301 297 299 299 298 297 298 297 297 296 293 292 291 290 288 286 286 287 288 288 287 283 279 277 276 277 277
41 34 27 22 16 10 6 2 358 356 354 351 350 349 349 349 349 348 347 346 347 347 344 343 342 341 339 337 334 332 330 327 322 314 309 305 302 299 295 290 283 276 276 276 276 285 289 288 287 288 291 297 300 300 301 301 301 302 300 293 293 294 293 294 296 295 294 295 294 292 291 289 287 285 283 283 283 284 285 285 281 277 275 273 273
38 30 23 16 11 6 3 0 358 356 355 352 350 350 349 349 348 346 345 345 345 344 341 341 339 337 335 333 332 329 326 323 319 314 310 307 305 300 296 291 285 280 277 276 276 285 290 290 287 287 287 289 293 296 300 302 302 302 301 295 291 290 287 288 293 295 294 293 293 293 292 290 287 284 282 280 279 281 283 284 284 280 276 273 271
32 23 16 11 7 3 360 357 356 354 353 351 350 349 349 347 346 345 344 344 343 341 339 337 335 333 331 329 326 323 320 318 315 312 308 306 303 298 294 291 286 283 276 276 278 282 289 294 293 293 293 289 287 292 296 299 301 303 303 299 295 291 287 285 286 289 293 295 296 296 294 291 287 283 281 279 277 278 280 281 283 282 279 275 271
24 16 11 7 2 358 356 353 351 350 349 348 348 347 346 345 344 343 341 340 339 337 335 332 330 328 326 322 319 318 317 316 314 311 306 303 301 297 293 291 286 285 282 277 278 279 286 292 294 296 299 298 295 298 300 299 299 301 302 301 300 296 292 288 283 283 287 291 296 297 295 292 289 284 280 279 277 276 277 278 280 281 280 277 273
16 10 5 1 356 353 351 348 346 345 345 344 344 344 343 342 340 338 338 337 336 334 330 328 326 324 322 317 316 319 319 314 312 310 307 304 302 298 295 293 289 288 287 281 278 280 284 288 291 294 298 302 303 304 306 304 300 299 299 300 301 300 297 293 289 287 285 283 286 292 293 292 290 285 280 277 275 274 274 275 276 278 280 279 275
8 4 358 354 351 348 345 342 342 341 341 341 340 340 339 338 336 335 335 335 333 331 328 327 325 322 318 314 313 317 317 312 311 310 307 305 303 300 296 295 294 292 290 288 284 282 283 285 289 293 297 301 304 306 308 308 306 303 301 301 301 300 299 297 294 292 291 288 285 287 291 292 291 288 283 279 276 274 272 272 273 275 277 277 275
358 355 352 348 344 342 339 337 337 337 338 337 336 336 336 334 333 333 334 333 330 329 328 326 324 320 316 313 311 311 312 308 308 308 306 306 304 301 299 298 298 296 292 291 289 286 284 284 287 293 297 300 304 305 307 309 308 306 305 304 301 299 301 303 302 300 298 296 292 290 288 287 287 285 282 280 278 276 274 272 271 272 273 274 274
347 346 344 341 338 336 333 331 332 334 334 334 333 333 333 331 331 332 331 329 326 325 324 320 318 317 314 312 309 308 307 305 304 306 307 307 304 300 300 300 299 298 295 293 293 290 289 287 288 291 295 299 301 303 306 309 306 303 306 308 307 305 305 305 303 302 301 299 297 295 291 287 284 283 281 281 281 281 278 275 272 270 270 272 273
334 336 337 335 331 329 327 325 328 330 330 331 331 331 330 331 330 327 324 323 321 320 320 316 314 314 313 311 306 302 300 299 298 299 300 302 301 298 298 299 299 298 296 296 296 294 292 291 291 293 295 297 299 301 305 308 305 303 307 308 305 303 303 303 300 300 304 306 304 302 300 296 290 287 283 281 282 284 283 280 275 270 268 270 272
322 328 329 327 324 321 320 320 323 328 328 328 329 328 328 328 325 321 319 319 318 315 314 313 312 311 310 304 299 299 302 303 301 297 292 291 293 293 295 297 297 296 296 295 296 296 294 292 291 294 295 295 299 303 305 307 305 304 307 305 300 299 303 304 300 298 301 306 307 305 304 303 302 298 291 285 283 284 283 280 278 274 272 273 274
314 321 320 318 316 314 315 316 320 325 325 325 325 325 325 323 318 316 315 315 313 308 304 305 306 307 305 299 296 300 305 307 306 302 295 290 289 288 289 292 293 294 295 295 294 294 294 293 293 295 296 294 297 302 302 301 301 300 302 301 298 299 304 302 298 298 302 304 304 301 297 298 300 298 293 288 287 287 284 279 277 276 276 276 279
306 311 311 310 310 310 311 312 317 324 323 321 323 321 319 315 311 310 308 304 299 295 294 295 299 302 302 300 299 300 304 305 303 301 297 294 293 291 290 290 289 289 291 292 293 294 293 291 290 291 292 292 294 296 295 296 296 296 298 298 297 298 301 300 299 303 312 315 308 300 295 295 295 291 287 284 283 284 284 280 279 278 278 279 280
297 302 303 303 304 306 308 310 315 320 320 318 318 316 313 309 308 306 300 294 289 286 287 291 296 299 299 300 301 298 300 303 302 300 298 297 296 295 293 292 289 287 286 286 287 288 288 287 286 286 287 288 291 292 292 293 294 295 296 295 293 294 295 296 296 299 307 313 308 299 294 293 295 291 285 280 278 278 277 277 277 277 276 277 278
290 294 296 298 301 303 306 309 312 316 318 315 313 312 310 306 307 303 295 290 283 280 286 292 295 297 297 297 299 296 296 300 301 300 299 298 298 297 294 291 288 285 283 281 280 280 280 280 280 280 281 282 284 286 286 288 290 291 290 289 288 288 289 291 292 295 301 304 299 294 290 289 293 292 287 284 283 280 277 276 276 275 274 272 272
284 289 292 294 298 302 305 307 310 314 316 313 312 312 308 305 307 300 290 285 281 284 290 292 291 291 292 293 294 294 296 297 297 298 298 298 298 295 290 286 283 280 277 277 279 278 276 274 275 276 276 276 278 280 281 282 282 281 281 282 283 282 281 284 287 291 295 293 289 288 286 286 293 291 286 288 291 288 283 279 277 276 275 272 270
280 285 288 292 296 300 304 305 306 311 314 313 312 310 306 305 303 294 288 287 288 289 291 290 284 283 286 288 289 292 293 294 293 293 295 296 294 291 287 284 283 280 275 274 276 276 273 270 269 270 270 269 268 270 273 272 271 272 272 272 275 278 281 284 287 289 289 286 283 282 281 286 295 291 285 288 292 290 287 283 279 277 275 274 272
276 281 285 291 295 298 301 303 305 310 313 313 310 306 304 303 298 293 294 294 291 287 284 283 283 281 280 282 286 290 291 291 291 292 293 295 294 290 286 284 284 283 281 280 277 273 272 272 271 271 270 269 267 268 270 271 270 273 275 276 279 285 287 289 289 288 287 284 279 276 278 285 294 291 286 289 291 287 285 282 279 277 275 275 274
274 279 284 289 292 295 300 302 304 307 311 312 308 304 302 299 296 296 298 293 286 282 280 282 284 281 276 277 283 288 289 289 291 294 296 297 295 292 289 288 286 282 281 282 278 274 276 280 282 284 283 281 279 279 280 279 278 281 284 284 286 288 287 287 288 286 285 282 278 276 277 282 290 289 287 290 288 285 286 285 282 279 276 274 273
272 277 282 287 291 295 299 302 303 304 308 311 307 303 300 296 294 295 294 288 281 281 283 284 283 280 279 282 285 286 285 287 292 298 300 300 297 294 292 289 284 279 279 280 278 277 278 279 281 285 285 285 286 286 284 281 280 282 282 281 282 283 282 281 282 284 283 279 278 278 276 280 287 289 290 294 291 283 283 284 283 283 284 283 277
270 275 280 286 290 294 297 299 301 301 305 308 304 300 297 293 291 291 288 282 281 283 284 284 287 289 289 290 290 287 286 290 295 300 301 300 297 293 289 286 282 280 281 282 280 279 278 276 274 277 278 279 280 279 276 273 272 272 272 274 276 277 277 276 278 281 282 277 277 278 278 283 288 289 292 298 297 289 286 284 284 287 288 289 287